| time (UTC) | temp F | wind direction | speed knots | gust knots | rain 1hr in | rain 24hr in | rain mn in | humidity % | barometer mb |
| 20260507032504 | 43 | 333 | 0.0 | 0.0 | 0.00 | 0.40 | 0.40 | 86 | 1015.0 |
| 20260507032005 | 43 | 333 | 0.0 | 0.0 | 0.00 | 0.40 | 0.40 | 86 | 1015.0 |
| 20260507031515 | 43 | 333 | 0.0 | 0.0 | 0.00 | 0.40 | 0.40 | 86 | 1015.0 |
| 20260507031003 | 43 | 333 | 0.0 | 0.0 | 0.00 | 0.40 | 0.40 | 85 | 1015.0 |
| 20260507030504 | 43 | 333 | 0.0 | 0.0 | 0.00 | 0.41 | 0.40 | 85 | 1015.1 |
| 20260507030009 | 43 | 333 | 0.0 | 0.0 | 0.00 | 0.41 | 0.40 | 84 | 1015.1 |
| 20260507025508 | 43 | 333 | 0.0 | 0.0 | 0.00 | 0.41 | 0.40 | 84 | 1015.2 |
| 20260507025005 | 43 | 333 | 0.0 | 0.0 | 0.00 | 0.41 | 0.40 | 83 | 1015.2 |
| 20260507024516 | 44 | 333 | 0.0 | 0.0 | 0.00 | 0.42 | 0.40 | 83 | 1015.2 |
| 20260507024006 | 44 | 333 | 0.0 | 0.0 | 0.00 | 0.42 | 0.40 | 83 | 1015.2 |
| 20260507023504 | 44 | 333 | 0.0 | 0.0 | 0.00 | 0.43 | 0.40 | 82 | 1015.3 |
| 20260507023014 | 44 | 333 | 0.0 | 0.0 | 0.00 | 0.43 | 0.40 | 81 | 1015.2 |
| 20260507022504 | 45 | 333 | 0.0 | 0.0 | 0.00 | 0.44 | 0.40 | 81 | 1015.2 |
| 20260507022005 | 45 | 333 | 0.0 | 0.0 | 0.00 | 0.45 | 0.40 | 80 | 1015.1 |
| 20260507021504 | 45 | 333 | 0.0 | 0.0 | 0.00 | 0.46 | 0.40 | 79 | 1015.1 |
| 20260507021003 | 46 | 333 | 0.0 | 0.0 | 0.00 | 0.47 | 0.40 | 79 | 1015.1 |
| 20260507020503 | 46 | 333 | 0.0 | 0.0 | 0.00 | 0.48 | 0.40 | 79 | 1014.9 |
| 20260507020009 | 47 | 333 | 0.0 | 0.0 | 0.00 | 0.49 | 0.40 | 78 | 1014.7 |
| 20260507015506 | 47 | 333 | 0.0 | 0.0 | 0.00 | 0.50 | 0.40 | 77 | 1014.7 |
| 20260507015004 | 47 | 333 | 0.0 | 0.0 | 0.00 | 0.50 | 0.40 | 77 | 1014.6 |
| 20260507014523 | 48 | 333 | 0.0 | 0.0 | 0.00 | 0.51 | 0.40 | 76 | 1014.5 |
| 20260507014004 | 48 | 333 | 0.0 | 0.0 | 0.00 | 0.52 | 0.40 | 76 | 1014.6 |
| 20260507013502 | 49 | 333 | 0.0 | 0.0 | 0.00 | 0.52 | 0.40 | 75 | 1014.6 |
| 20260507013033 | 49 | 325 | 0.0 | 0.0 | 0.00 | 0.56 | 0.40 | 75 | 1014.5 |
| 20260507012505 | 49 | 325 | 0.0 | 0.0 | 0.00 | 0.57 | 0.40 | 74 | 1014.4 |
| 20260507012004 | 50 | 325 | 0.0 | 0.0 | 0.00 | 0.58 | 0.40 | 73 | 1014.4 |
| 20260507011531 | 50 | 325 | 0.0 | 0.0 | 0.00 | 0.58 | 0.40 | 73 | 1014.4 |
| 20260507011004 | 50 | 325 | 0.0 | 0.0 | 0.00 | 0.62 | 0.40 | 73 | 1014.5 |
| 20260507010503 | 51 | 325 | 0.0 | 0.0 | 0.00 | 0.64 | 0.40 | 72 | 1014.4 |
| 20260507010005 | 51 | 325 | 0.0 | 0.0 | 0.00 | 0.65 | 0.40 | 71 | 1014.4 |
| 20260507005502 | 52 | 325 | 0.0 | 0.0 | 0.00 | 0.66 | 0.40 | 71 | 1014.3 |
| 20260507005002 | 52 | 325 | 0.0 | 0.0 | 0.00 | 0.66 | 0.40 | 68 | 1014.3 |
| 20260507004513 | 52 | 325 | 0.0 | 0.0 | 0.00 | 0.67 | 0.40 | 67 | 1014.2 |
| 20260507004003 | 53 | 325 | 0.0 | 0.0 | 0.00 | 0.68 | 0.40 | 67 | 1014.0 |
| 20260507003504 | 53 | 325 | 0.0 | 0.0 | 0.00 | 0.69 | 0.40 | 64 | 1013.8 |
| 20260507003016 | 53 | 325 | 0.0 | 0.0 | 0.00 | 0.70 | 0.40 | 65 | 1013.8 |
| 20260507002506 | 53 | 325 | 0.0 | 0.0 | 0.00 | 0.71 | 0.40 | 62 | 1013.8 |
| 20260507002010 | 54 | 325 | 0.0 | 0.9 | 0.00 | 0.72 | 0.40 | 58 | 1013.8 |
| 20260507001519 | 54 | 302 | 0.0 | 1.7 | 0.00 | 0.73 | 0.40 | 58 | 1013.8 |
| 20260507001004 | 54 | 302 | 0.0 | 1.7 | 0.00 | 0.74 | 0.40 | 57 | 1013.7 |
| 20260507000506 | 54 | 279 | 0.0 | 1.7 | 0.00 | 0.74 | 0.40 | 57 | 1013.7 |
| 20260507000027 | 54 | 279 | 0.0 | 1.7 | 0.00 | 0.75 | 0.40 | 56 | 1013.8 |
| 20260506235504 | 54 | 281 | 0.0 | 1.7 | 0.00 | 0.76 | 0.40 | 56 | 1013.7 |
| 20260506235006 | 55 | 294 | 0.0 | 1.7 | 0.00 | 0.77 | 0.40 | 55 | 1013.7 |
| 20260506234506 | 55 | 321 | 0.0 | 1.7 | 0.00 | 0.77 | 0.40 | 55 | 1013.6 |
| 20260506234006 | 55 | 308 | 0.0 | 1.7 | 0.00 | 0.78 | 0.40 | 54 | 1013.6 |
| 20260506233503 | 55 | 334 | 0.0 | 1.7 | 0.00 | 0.79 | 0.40 | 55 | 1013.5 |
| 20260506233011 | 55 | 302 | 0.9 | 2.6 | 0.00 | 0.79 | 0.40 | 53 | 1013.6 |
| 20260506232503 | 56 | 320 | 0.0 | 2.6 | 0.00 | 0.79 | 0.40 | 55 | 1013.7 |
| 20260506232007 | 56 | 290 | 0.9 | 2.6 | 0.00 | 0.80 | 0.40 | 55 | 1013.7 |
| 20260506231515 | 56 | 269 | 0.0 | 3.5 | 0.00 | 0.80 | 0.40 | 53 | 1013.6 |
| 20260506231003 | 56 | 5 | 0.9 | 3.5 | 0.00 | 0.80 | 0.40 | 54 | 1013.7 |
| 20260506230509 | 56 | 333 | 0.0 | 3.5 | 0.00 | 0.81 | 0.40 | 55 | 1013.7 |
| 20260506230018 | 56 | 352 | 0.9 | 1.7 | 0.00 | 0.82 | 0.40 | 55 | 1013.7 |
| 20260506225512 | 56 | 271 | 0.9 | 2.6 | 0.00 | 0.83 | 0.40 | 56 | 1013.8 |
| 20260506225004 | 55 | 246 | 0.9 | 2.6 | 0.00 | 0.84 | 0.40 | 56 | 1013.9 |
| 20260506224522 | 55 | 284 | 0.9 | 2.6 | 0.00 | 0.85 | 0.40 | 56 | 1014.0 |
| 20260506224004 | 55 | 319 | 0.0 | 1.7 | 0.00 | 0.86 | 0.40 | 55 | 1013.9 |
| 20260506223503 | 55 | 296 | 0.0 | 2.6 | 0.00 | 0.87 | 0.40 | 55 | 1014.0 |
| 20260506223008 | 55 | 288 | 0.9 | 2.6 | 0.00 | 0.88 | 0.40 | 54 | 1014.0 |
| 20260506222506 | 55 | 263 | 0.9 | 2.6 | 0.00 | 0.89 | 0.40 | 55 | 1014.1 |
| 20260506222004 | 55 | 291 | 0.0 | 5.2 | 0.00 | 0.90 | 0.40 | 54 | 1014.1 |
| 20260506221517 | 55 | 304 | 0.9 | 5.2 | 0.00 | 0.90 | 0.40 | 53 | 1014.1 |
| 20260506221009 | 55 | 266 | 0.9 | 4.3 | 0.00 | 0.91 | 0.40 | 53 | 1014.1 |
| 20260506220506 | 56 | 5 | 0.9 | 4.3 | 0.00 | 0.94 | 0.40 | 52 | 1014.1 |
| 20260506220020 | 56 | 294 | 1.7 | 4.3 | 0.00 | 0.94 | 0.40 | 51 | 1014.1 |
| 20260506215508 | 56 | 352 | 0.9 | 5.2 | 0.00 | 0.94 | 0.40 | 52 | 1014.1 |
| 20260506215007 | 56 | 301 | 0.9 | 6.1 | 0.00 | 0.94 | 0.40 | 53 | 1014.0 |
| 20260506214520 | 56 | 287 | 0.9 | 6.1 | 0.00 | 0.94 | 0.40 | 53 | 1013.9 |
| 20260506214008 | 56 | 291 | 0.9 | 4.3 | 0.00 | 0.94 | 0.40 | 52 | 1013.8 |
| 20260506213507 | 56 | 39 | 0.9 | 3.5 | 0.00 | 0.94 | 0.40 | 52 | 1013.8 |
| 20260506213012 | 56 | 325 | 0.9 | 7.0 | 0.00 | 0.94 | 0.40 | 51 | 1013.8 |
| 20260506212506 | 56 | 360 | 1.7 | 7.0 | 0.00 | 0.94 | 0.40 | 52 | 1013.7 |
| 20260506212006 | 56 | 323 | 0.9 | 3.5 | 0.00 | 0.94 | 0.40 | 53 | 1013.6 |
| 20260506211512 | 56 | 303 | 0.9 | 3.5 | 0.00 | 0.94 | 0.40 | 55 | 1013.6 |
| 20260506211003 | 56 | 250 | 0.9 | 3.5 | 0.00 | 0.95 | 0.40 | 56 | 1013.5 |
| 20260506210505 | 56 | 306 | 0.9 | 7.0 | 0.00 | 0.95 | 0.40 | 55 | 1013.6 |
| 20260506210023 | 56 | 272 | 0.9 | 7.0 | 0.00 | 0.96 | 0.40 | 54 | 1013.5 |
| 20260506205507 | 56 | 294 | 0.9 | 5.2 | 0.00 | 0.96 | 0.40 | 53 | 1013.4 |
| 20260506205010 | 56 | 275 | 1.7 | 6.1 | 0.00 | 0.96 | 0.40 | 54 | 1013.5 |
| 20260506204524 | 56 | 267 | 1.7 | 6.1 | 0.00 | 0.97 | 0.40 | 52 | 1013.5 |
| 20260506204006 | 56 | 281 | 0.9 | 7.0 | 0.00 | 0.97 | 0.40 | 55 | 1013.5 |
| 20260506203507 | 56 | 13 | 1.7 | 7.0 | 0.00 | 0.98 | 0.40 | 51 | 1013.6 |
| 20260506203023 | 56 | 252 | 1.7 | 7.0 | 0.00 | 0.99 | 0.40 | 52 | 1013.6 |
| 20260506202507 | 57 | 253 | 0.9 | 5.2 | 0.00 | 1.00 | 0.40 | 54 | 1013.5 |
| 20260506202008 | 56 | 269 | 1.7 | 5.2 | 0.00 | 1.01 | 0.40 | 52 | 1013.5 |
| 20260506201510 | 56 | 284 | 1.7 | 6.1 | 0.00 | 1.01 | 0.40 | 52 | 1013.5 |
| 20260506201007 | 57 | 360 | 1.7 | 6.1 | 0.00 | 1.03 | 0.40 | 52 | 1013.5 |
| 20260506200505 | 57 | 252 | 1.7 | 6.1 | 0.00 | 1.05 | 0.40 | 53 | 1013.4 |
| 20260506200016 | 57 | 279 | 1.7 | 5.2 | 0.00 | 1.08 | 0.40 | 53 | 1013.4 |
| 20260506195506 | 57 | 275 | 0.0 | 7.8 | 0.00 | 1.10 | 0.40 | 57 | 1013.4 |
| 20260506195009 | 57 | 278 | 2.6 | 7.8 | 0.00 | 1.10 | 0.40 | 55 | 1013.3 |
| 20260506194520 | 57 | 336 | 0.9 | 7.0 | 0.00 | 1.10 | 0.40 | 55 | 1013.2 |
| 20260506194009 | 57 | 40 | 1.7 | 5.2 | 0.00 | 1.10 | 0.40 | 55 | 1013.3 |
| 20260506193509 | 57 | 360 | 1.7 | 7.0 | 0.00 | 1.10 | 0.40 | 54 | 1013.2 |
| 20260506193024 | 57 | 311 | 1.7 | 7.8 | 0.00 | 1.10 | 0.40 | 56 | 1013.3 |
| 20260506192507 | 57 | 289 | 2.6 | 7.8 | 0.00 | 1.10 | 0.40 | 54 | 1013.3 |
| 20260506192008 | 57 | 343 | 1.7 | 7.8 | 0.00 | 1.10 | 0.40 | 55 | 1013.4 |
| 20260506191526 | 57 | 296 | 3.5 | 7.8 | 0.00 | 1.10 | 0.40 | 54 | 1013.3 |
| 20260506191003 | 58 | 267 | 2.6 | 5.2 | 0.00 | 1.10 | 0.40 | 55 | 1013.3 |
| 20260506190503 | 58 | 24 | 1.7 | 5.2 | 0.00 | 1.10 | 0.40 | 56 | 1013.2 |
| 20260506190013 | 58 | 5 | 0.9 | 7.0 | 0.00 | 1.10 | 0.40 | 53 | 1013.2 |
| 20260506185503 | 58 | 339 | 3.5 | 7.8 | 0.00 | 1.10 | 0.40 | 52 | 1013.3 |
| 20260506185003 | 58 | 352 | 2.6 | 9.6 | 0.00 | 1.10 | 0.40 | 50 | 1013.1 |
| 20260506184519 | 58 | 340 | 2.6 | 9.6 | 0.00 | 1.10 | 0.40 | 50 | 1013.2 |
| 20260506184007 | 59 | 323 | 6.1 | 9.6 | 0.00 | 1.10 | 0.40 | 50 | 1013.0 |
| 20260506183507 | 59 | 32 | 3.5 | 8.7 | 0.00 | 1.10 | 0.40 | 54 | 1012.8 |
| 20260506183024 | 59 | 27 | 2.6 | 7.8 | 0.00 | 1.10 | 0.40 | 54 | 1012.7 |
| 20260506182506 | 59 | 25 | 2.6 | 7.0 | 0.00 | 1.10 | 0.40 | 52 | 1012.9 |
| 20260506182013 | 59 | 321 | 1.7 | 8.7 | 0.00 | 1.10 | 0.40 | 49 | 1013.1 |
| 20260506181531 | 59 | 30 | 3.5 | 8.7 | 0.00 | 1.10 | 0.40 | 50 | 1013.0 |
| 20260506181012 | 59 | 337 | 2.6 | 8.7 | 0.00 | 1.10 | 0.40 | 56 | 1013.1 |
| 20260506180515 | 58 | 344 | 1.7 | 7.8 | 0.00 | 1.10 | 0.40 | 57 | 1013.3 |
| 20260506180033 | 58 | 38 | 2.6 | 7.8 | 0.00 | 1.10 | 0.40 | 56 | 1013.2 |
| 20260506175503 | 58 | 300 | 0.9 | 7.0 | 0.00 | 1.10 | 0.40 | 56 | 1013.3 |
| 20260506175003 | 57 | 348 | 3.5 | 7.0 | 0.00 | 1.10 | 0.40 | 55 | 1013.3 |
| 20260506174517 | 57 | 294 | 1.7 | 8.7 | 0.00 | 1.10 | 0.40 | 54 | 1013.3 |
| 20260506174009 | 58 | 19 | 3.5 | 8.7 | 0.00 | 1.10 | 0.40 | 55 | 1013.4 |
| 20260506173507 | 58 | 11 | 1.7 | 6.1 | 0.00 | 1.10 | 0.40 | 58 | 1013.4 |
| 20260506173021 | 58 | 261 | 1.7 | 7.0 | 0.00 | 1.10 | 0.40 | 56 | 1013.5 |
| 20260506172507 | 57 | 296 | 1.7 | 7.0 | 0.00 | 1.10 | 0.40 | 56 | 1013.5 |
| 20260506172012 | 57 | 344 | 2.6 | 7.0 | 0.00 | 1.10 | 0.40 | 54 | 1013.4 |
| 20260506171538 | 57 | 347 | 3.5 | 9.6 | 0.00 | 1.10 | 0.40 | 55 | 1013.5 |
| 20260506171008 | 58 | 5 | 5.2 | 9.6 | 0.00 | 1.10 | 0.40 | 54 | 1013.5 |
| 20260506170510 | 58 | 38 | 0.9 | 7.0 | 0.00 | 1.10 | 0.40 | 56 | 1013.6 |
| 20260506170024 | 58 | 267 | 1.7 | 7.0 | 0.00 | 1.10 | 0.40 | 55 | 1013.5 |
| 20260506165511 | 58 | 267 | 1.7 | 7.0 | 0.00 | 1.10 | 0.40 | 55 | 1013.4 |
| 20260506165008 | 58 | 33 | 2.6 | 7.0 | 0.00 | 1.10 | 0.40 | 58 | 1013.3 |
| 20260506164513 | 58 | 352 | 2.6 | 7.0 | 0.00 | 1.10 | 0.40 | 59 | 1013.2 |
| 20260506164007 | 57 | 12 | 2.6 | 7.8 | 0.00 | 1.10 | 0.40 | 59 | 1013.2 |
| 20260506163506 | 57 | 5 | 1.7 | 7.8 | 0.00 | 1.10 | 0.40 | 60 | 1013.1 |
| 20260506163022 | 57 | 5 | 2.6 | 7.8 | 0.00 | 1.10 | 0.40 | 62 | 1013.4 |
| 20260506162508 | 57 | 273 | 0.9 | 7.0 | 0.00 | 1.10 | 0.40 | 61 | 1013.3 |
| 20260506162011 | 56 | 22 | 0.9 | 7.0 | 0.00 | 1.10 | 0.40 | 62 | 1013.4 |
| 20260506161535 | 56 | 277 | 1.7 | 7.0 | 0.00 | 1.10 | 0.40 | 62 | 1013.4 |
| 20260506161005 | 56 | 26 | 2.6 | 6.1 | 0.00 | 1.10 | 0.40 | 61 | 1013.2 |
| 20260506160506 | 56 | 342 | 1.7 | 7.0 | 0.00 | 1.10 | 0.40 | 62 | 1013.3 |
| 20260506160028 | 56 | 242 | 1.7 | 7.0 | 0.00 | 1.10 | 0.40 | 65 | 1013.3 |
| 20260506155515 | 55 | 317 | 2.6 | 7.8 | 0.00 | 1.10 | 0.40 | 66 | 1013.4 |
| 20260506155011 | 55 | 350 | 0.9 | 7.8 | 0.00 | 1.10 | 0.40 | 66 | 1013.5 |
| 20260506154529 | 55 | 19 | 1.7 | 6.1 | 0.00 | 1.10 | 0.40 | 66 | 1013.6 |
| 20260506154011 | 54 | 329 | 1.7 | 7.0 | 0.00 | 1.10 | 0.40 | 67 | 1013.4 |
| 20260506153503 | 54 | 9 | 2.6 | 7.0 | 0.00 | 1.10 | 0.40 | 69 | 1013.4 |
| 20260506153016 | 54 | 346 | 0.9 | 7.0 | 0.00 | 1.10 | 0.40 | 72 | 1013.1 |
| 20260506152506 | 53 | 308 | 0.9 | 5.2 | 0.00 | 1.10 | 0.40 | 74 | 1013.0 |
| 20260506152008 | 52 | 338 | 0.9 | 7.0 | 0.00 | 1.10 | 0.40 | 72 | 1012.7 |
| 20260506151521 | 52 | 352 | 0.9 | 7.0 | 0.00 | 1.10 | 0.40 | 71 | 1012.7 |
| 20260506151006 | 52 | 345 | 2.6 | 7.0 | 0.00 | 1.10 | 0.40 | 71 | 1012.7 |
| 20260506150507 | 51 | 350 | 3.5 | 7.0 | 0.00 | 1.10 | 0.40 | 72 | 1012.6 |
| 20260506150029 | 51 | 9 | 2.6 | 7.8 | 0.00 | 1.10 | 0.40 | 73 | 1012.5 |
| 20260506145508 | 51 | 11 | 1.7 | 7.8 | 0.00 | 1.10 | 0.40 | 73 | 1012.4 |
| 20260506145013 | 51 | 5 | 3.5 | 7.0 | 0.00 | 1.10 | 0.40 | 74 | 1012.5 |
| 20260506144528 | 51 | 352 | 1.7 | 7.0 | 0.00 | 1.10 | 0.40 | 74 | 1012.7 |
| 20260506144010 | 50 | 337 | 0.9 | 7.8 | 0.00 | 1.10 | 0.40 | 75 | 1012.5 |
| 20260506143514 | 50 | 295 | 4.3 | 7.8 | 0.00 | 1.10 | 0.40 | 77 | 1012.3 |
| 20260506143026 | 49 | 40 | 4.3 | 8.7 | 0.00 | 1.10 | 0.40 | 79 | 1012.1 |
| 20260506142507 | 49 | 335 | 3.5 | 7.8 | 0.00 | 1.10 | 0.40 | 81 | 1012.2 |
| 20260506142003 | 49 | 347 | 1.7 | 5.2 | 0.00 | 1.10 | 0.40 | 82 | 1012.3 |
| 20260506141521 | 48 | 342 | 0.9 | 6.1 | 0.00 | 1.10 | 0.40 | 83 | 1012.3 |
| 20260506141006 | 48 | 352 | 2.6 | 6.1 | 0.00 | 1.10 | 0.40 | 84 | 1012.4 |
| 20260506140508 | 48 | 315 | 0.0 | 3.5 | 0.00 | 1.10 | 0.40 | 85 | 1012.6 |
| 20260506140024 | 47 | 43 | 1.7 | 7.0 | 0.00 | 1.10 | 0.40 | 84 | 1012.4 |
| 20260506135506 | 47 | 360 | 3.5 | 7.0 | 0.00 | 1.10 | 0.40 | 84 | 1012.4 |
| 20260506135015 | 47 | 331 | 0.9 | 3.5 | 0.00 | 1.10 | 0.40 | 86 | 1012.4 |
| 20260506134602 | 47 | 323 | 1.7 | 4.3 | 0.00 | 1.10 | 0.40 | 87 | 1012.1 |
| 20260506134011 | 46 | 348 | 1.7 | 6.1 | 0.00 | 1.10 | 0.40 | 87 | 1012.0 |
| 20260506133511 | 46 | 232 | 1.7 | 7.0 | 0.00 | 1.10 | 0.40 | 87 | 1011.8 |
| 20260506133027 | 46 | 345 | 0.9 | 7.8 | 0.01 | 1.10 | 0.40 | 87 | 1011.7 |
| 20260506132508 | 46 | 9 | 2.6 | 7.8 | 0.01 | 1.10 | 0.40 | 88 | 1011.8 |
| 20260506132013 | 46 | 340 | 1.7 | 5.2 | 0.01 | 1.10 | 0.40 | 89 | 1011.9 |
| 20260506131521 | 45 | 5 | 1.7 | 5.2 | 0.01 | 1.10 | 0.40 | 89 | 1011.8 |
| 20260506131007 | 45 | 345 | 2.6 | 4.3 | 0.01 | 1.10 | 0.40 | 89 | 1011.8 |
| 20260506130507 | 45 | 293 | 1.7 | 4.3 | 0.01 | 1.10 | 0.40 | 89 | 1011.7 |
| 20260506130024 | 45 | 327 | 0.9 | 4.3 | 0.01 | 1.10 | 0.40 | 90 | 1011.7 |
| 20260506125509 | 45 | 300 | 0.9 | 3.5 | 0.01 | 1.10 | 0.40 | 90 | 1011.7 |
| 20260506125008 | 44 | 299 | 0.9 | 4.3 | 0.01 | 1.10 | 0.40 | 90 | 1011.5 |
| 20260506124527 | 44 | 15 | 0.9 | 4.3 | 0.01 | 1.10 | 0.40 | 90 | 1011.4 |
| 20260506124007 | 44 | 5 | 1.7 | 5.2 | 0.01 | 1.10 | 0.40 | 90 | 1011.4 |
| 20260506123507 | 44 | 5 | 0.9 | 7.0 | 0.01 | 1.10 | 0.40 | 91 | 1011.5 |
| 20260506123027 | 44 | 350 | 1.7 | 7.0 | 0.00 | 1.09 | 0.39 | 91 | 1011.5 |
| 20260506122508 | 44 | 360 | 0.9 | 4.3 | 0.00 | 1.09 | 0.39 | 91 | 1011.4 |
| 20260506122011 | 44 | 325 | 0.9 | 4.3 | 0.00 | 1.09 | 0.39 | 91 | 1011.3 |
| 20260506121528 | 44 | 291 | 0.0 | 3.5 | 0.00 | 1.09 | 0.39 | 91 | 1011.4 |
| 20260506121004 | 44 | 312 | 0.9 | 2.6 | 0.00 | 1.09 | 0.39 | 91 | 1011.0 |
| 20260506120513 | 44 | 296 | 0.9 | 3.5 | 0.00 | 1.09 | 0.39 | 91 | 1011.0 |
| 20260506120021 | 44 | 336 | 1.7 | 4.3 | 0.00 | 1.09 | 0.39 | 91 | 1010.7 |
| 20260506115508 | 43 | 5 | 0.9 | 4.3 | 0.00 | 1.09 | 0.39 | 91 | 1010.5 |
| 20260506115007 | 43 | 134 | 1.7 | 4.3 | 0.00 | 1.09 | 0.39 | 91 | 1010.4 |
| 20260506114532 | 43 | 27 | 1.7 | 6.1 | 0.00 | 1.09 | 0.39 | 92 | 1010.2 |
| 20260506114008 | 43 | 10 | 2.6 | 6.1 | 0.00 | 1.09 | 0.39 | 92 | 1010.0 |
| 20260506113508 | 43 | 5 | 2.6 | 4.3 | 0.00 | 1.09 | 0.39 | 92 | 1010.0 |
| 20260506113032 | 43 | 9 | 0.9 | 3.5 | 0.00 | 1.09 | 0.39 | 92 | 1010.1 |
| 20260506112511 | 43 | 5 | 0.0 | 4.3 | 0.00 | 1.09 | 0.39 | 92 | 1010.3 |
| 20260506112015 | 43 | 352 | 0.9 | 4.3 | 0.00 | 1.09 | 0.39 | 92 | 1010.3 |
| 20260506111510 | 43 | 294 | 0.9 | 4.3 | 0.00 | 1.09 | 0.39 | 92 | 1010.5 |
| 20260506111006 | 43 | 15 | 1.7 | 6.1 | 0.00 | 1.09 | 0.39 | 92 | 1010.2 |
| 20260506110504 | 43 | 352 | 0.9 | 6.1 | 0.00 | 1.09 | 0.39 | 92 | 1010.0 |
| 20260506110016 | 43 | 224 | 1.7 | 4.3 | 0.00 | 1.10 | 0.39 | 92 | 1009.8 |
| 20260506105508 | 43 | 327 | 0.9 | 4.3 | 0.00 | 1.10 | 0.39 | 92 | 1009.9 |
| 20260506105005 | 43 | 16 | 0.9 | 6.1 | 0.00 | 1.10 | 0.39 | 92 | 1009.8 |
| 20260506104520 | 43 | 346 | 1.7 | 6.1 | 0.00 | 1.10 | 0.39 | 92 | 1009.5 |
| 20260506104007 | 43 | 350 | 0.9 | 5.2 | 0.00 | 1.10 | 0.39 | 92 | 1009.1 |
| 20260506103508 | 43 | 352 | 2.6 | 6.1 | 0.00 | 1.11 | 0.39 | 92 | 1009.1 |
| 20260506103032 | 43 | 12 | 1.7 | 6.1 | 0.00 | 1.11 | 0.39 | 92 | 1009.0 |
| 20260506102507 | 43 | 339 | 1.7 | 5.2 | 0.00 | 1.12 | 0.39 | 92 | 1009.2 |
| 20260506102011 | 44 | 319 | 1.7 | 5.2 | 0.00 | 1.12 | 0.39 | 93 | 1009.4 |
| 20260506101526 | 44 | 298 | 0.9 | 2.6 | 0.00 | 1.12 | 0.39 | 93 | 1009.5 |
| 20260506101006 | 44 | 329 | 0.9 | 2.6 | 0.00 | 1.12 | 0.39 | 93 | 1009.4 |
| 20260506100504 | 44 | 16 | 0.9 | 2.6 | 0.00 | 1.13 | 0.39 | 93 | 1009.3 |
| 20260506100023 | 43 | 5 | 0.9 | 1.7 | 0.00 | 1.13 | 0.39 | 93 | 1009.2 |
| 20260506095504 | 43 | 291 | 0.0 | 3.5 | 0.00 | 1.13 | 0.39 | 93 | 1009.1 |
| 20260506095002 | 43 | 342 | 0.9 | 3.5 | 0.00 | 1.14 | 0.39 | 93 | 1009.0 |
| 20260506094519 | 43 | 352 | 1.7 | 3.5 | 0.00 | 1.14 | 0.39 | 93 | 1008.7 |
| 20260506094004 | 43 | 5 | 0.9 | 3.5 | 0.00 | 1.14 | 0.39 | 93 | 1008.7 |
| 20260506093509 | 43 | 348 | 1.7 | 3.5 | 0.00 | 1.14 | 0.39 | 93 | 1008.4 |
| 20260506093024 | 43 | 20 | 0.0 | 5.2 | 0.00 | 1.15 | 0.39 | 93 | 1008.1 |
| 20260506092512 | 43 | 25 | 1.7 | 5.2 | 0.00 | 1.16 | 0.39 | 93 | 1008.1 |
| 20260506092014 | 43 | 21 | 1.7 | 3.5 | 0.00 | 1.16 | 0.39 | 93 | 1008.5 |
| 20260506091528 | 43 | 28 | 1.7 | 3.5 | 0.01 | 1.17 | 0.39 | 93 | 1008.7 |
| 20260506091008 | 43 | 18 | 0.9 | 3.5 | 0.01 | 1.20 | 0.39 | 93 | 1008.8 |
| 20260506090510 | 43 | 346 | 1.7 | 7.0 | 0.02 | 1.22 | 0.39 | 93 | 1008.7 |
| 20260506090028 | 43 | 13 | 2.6 | 8.7 | 0.02 | 1.22 | 0.39 | 93 | 1008.2 |
| 20260506085507 | 43 | 9 | 3.5 | 8.7 | 0.03 | 1.22 | 0.39 | 93 | 1008.4 |
| 20260506085004 | 44 | 9 | 5.2 | 8.7 | 0.04 | 1.22 | 0.39 | 93 | 1008.7 |
| 20260506084517 | 44 | 5 | 2.6 | 6.1 | 0.05 | 1.22 | 0.39 | 93 | 1008.6 |
| 20260506084006 | 44 | 338 | 3.5 | 8.7 | 0.06 | 1.22 | 0.39 | 93 | 1008.6 |
| 20260506083511 | 44 | 352 | 2.6 | 8.7 | 0.06 | 1.22 | 0.39 | 93 | 1008.7 |
| 20260506083022 | 44 | 5 | 1.7 | 7.8 | 0.07 | 1.22 | 0.39 | 93 | 1008.6 |
| 20260506082506 | 44 | 9 | 4.3 | 7.8 | 0.08 | 1.22 | 0.39 | 93 | 1008.4 |
| 20260506082011 | 44 | 61 | 3.5 | 7.0 | 0.08 | 1.22 | 0.39 | 93 | 1008.5 |
| 20260506081528 | 44 | 5 | 2.6 | 7.0 | 0.07 | 1.21 | 0.38 | 93 | 1008.4 |
| 20260506081008 | 44 | 13 | 3.5 | 8.7 | 0.07 | 1.21 | 0.38 | 93 | 1008.5 |
| 20260506080506 | 44 | 17 | 1.7 | 8.7 | 0.06 | 1.20 | 0.37 | 93 | 1008.6 |
| 20260506073510 | 44 | 347 | 1.7 | 7.8 | 0.04 | 1.16 | 0.33 | 93 | 1008.4 |
| 20260506073019 | 44 | 20 | 1.7 | 7.0 | 0.03 | 1.15 | 0.32 | 93 | 1008.5 |
| 20260506072507 | 44 | 324 | 0.9 | 7.0 | 0.02 | 1.14 | 0.31 | 93 | 1008.5 |
| 20260506072008 | 44 | 360 | 2.6 | 7.8 | 0.03 | 1.14 | 0.31 | 93 | 1008.4 |
| 20260506071523 | 45 | 275 | 1.7 | 7.8 | 0.04 | 1.14 | 0.31 | 93 | 1008.3 |
| 20260506071008 | 44 | 21 | 2.6 | 7.8 | 0.05 | 1.14 | 0.31 | 93 | 1008.2 |
| 20260506070505 | 44 | 13 | 2.6 | 7.8 | 0.06 | 1.14 | 0.31 | 92 | 1008.0 |
| 20260506062507 | 45 | 348 | 3.5 | 7.8 | 0.12 | 1.12 | 0.29 | 92 | 1007.8 |
| 20260506062004 | 45 | 360 | 3.5 | 8.7 | 0.12 | 1.11 | 0.28 | 92 | 1007.9 |
| 20260506061532 | 45 | 19 | 4.3 | 9.6 | 0.12 | 1.10 | 0.27 | 92 | 1007.9 |
| 20260506061006 | 45 | 11 | 4.3 | 11.3 | 0.12 | 1.09 | 0.26 | 92 | 1008.1 |
| 20260506060506 | 45 | 28 | 5.2 | 11.3 | 0.12 | 1.08 | 0.25 | 92 | 1008.4 |
| 20260506051009 | 47 | 336 | 4.3 | 8.7 | 0.14 | 0.97 | 0.14 | 92 | 1008.4 |
| 20260506050508 | 48 | 352 | 2.6 | 9.6 | 0.13 | 0.96 | 0.13 | 92 | 1008.3 |
| 20260506045004 | 48 | 360 | 1.7 | 9.6 | 0.10 | 0.93 | 0.10 | 92 | 1008.2 |
| 20260506044505 | 48 | 250 | 2.6 | 9.6 | 0.09 | 0.92 | 0.09 | 92 | 1008.1 |
| 20260506044005 | 48 | 19 | 2.6 | 7.0 | 0.08 | 0.91 | 0.08 | 92 | 1008.0 |
| 20260506043503 | 48 | 14 | 2.6 | 7.0 | 0.08 | 0.91 | 0.08 | 92 | 1008.1 |
| 20260506043014 | 48 | 360 | 2.6 | 7.8 | 0.07 | 0.90 | 0.07 | 92 | 1008.1 |
| 20260506042504 | 49 | 16 | 3.5 | 7.8 | 0.06 | 0.89 | 0.06 | 92 | 1008.2 |
| 20260506042008 | 49 | 15 | 2.6 | 5.2 | 0.03 | 0.86 | 0.03 | 92 | 1008.3 |
| 20260506041516 | 49 | 360 | 1.7 | 7.8 | 0.02 | 0.85 | 0.02 | 92 | 1008.2 |
| 20260506041003 | 49 | 348 | 2.6 | 7.8 | 0.00 | 0.83 | 0.00 | 92 | 1008.2 |
| 20260506040508 | 49 | 346 | 2.6 | 3.5 | 0.01 | 0.83 | 0.00 | 92 | 1008.0 |
| 20260506040025 | 49 | 360 | 1.7 | 6.1 | 0.01 | 0.83 | 0.00 | 92 | 1007.9 |
| 20260506035508 | 49 | 15 | 2.6 | 6.1 | 0.01 | 0.83 | 0.83 | 92 | 1007.8 |
| 20260506035008 | 49 | 36 | 2.6 | 4.3 | 0.01 | 0.83 | 0.83 | 92 | 1007.8 |
| 20260506034507 | 49 | 49 | 2.6 | 5.2 | 0.02 | 0.83 | 0.83 | 92 | 1007.9 |
| 20260506034003 | 49 | 352 | 3.5 | 9.6 | 0.02 | 0.83 | 0.83 | 92 | 1007.8 |
| 20260506033504 | 49 | 11 | 4.3 | 9.6 | 0.03 | 0.83 | 0.83 | 92 | 1007.7 |
| 20260506033014 | 49 | 20 | 4.3 | 8.7 | 0.03 | 0.83 | 0.83 | 92 | 1007.7 |